Location: Trondheim
(63.4170°N, 10.4170°E)
Time: 01:51:54
(UTC+01:00)

Iridium 82 - Visible Passes

Search period start: 28 February 2017 00:00
Search period end: 10 March 2017 00:00
Orbit: 776 x 779 km, 86.4° (Epoch: 27 February)

Date Brightness Start Highest point End Pass type
(mag) Time Alt. Az. Time Alt. Az. Time Alt. Az.
28 Feb 8.7 02:47:55 10° NNE 02:50:08 13° NE 02:52:21 10° ENE visible
28 Feb 7.2 04:27:43 10° N 04:32:33 35° ENE 04:37:21 10° SE visible
28 Feb 5.5 06:08:29 10° N 06:13:40 65° W 06:18:50 10° S visible
28 Feb 6.4 19:17:44 10° SSW 19:22:51 54° WNW 19:28:00 10° N visible
28 Feb 8.4 21:01:22 10° W 21:04:50 17° NW 21:08:18 10° N visible
01 Mar 7.7 03:54:17 10° N 03:58:40 26° ENE 04:03:03 10° ESE visible
01 Mar 5.6 05:34:53 10° N 05:40:09 88° E 05:45:24 10° S visible
01 Mar 5.8 18:43:58 10° SSW 18:49:12 77° W 18:54:28 10° N visible
01 Mar 8.0 20:26:40 10° WSW 20:30:49 23° WNW 20:34:59 10° N visible
02 Mar 8.2 03:20:56 10° N 03:24:42 19° NE 03:28:27 10° E visible
02 Mar 6.1 05:01:19 10° N 05:06:32 62° ENE 05:11:43 10° SSE visible
02 Mar 7.5 19:52:15 10° SW 19:56:54 31° WNW 20:01:34 10° N visible
02 Mar 8.8 21:37:50 10° WNW 21:39:28 11° NW 21:41:04 10° NNW visible
03 Mar 8.5 02:47:41 10° NNE 02:50:37 15° NE 02:53:32 10° E visible
03 Mar 6.8 04:27:48 10° N 04:32:49 43° ENE 04:37:48 10° SE visible
03 Mar 5.7 06:08:39 10° NNW 06:13:44 52° W 06:18:47 10° SSW visible
03 Mar 6.9 19:18:05 10° SW 19:23:05 44° WNW 19:28:06 10° N visible
03 Mar 8.6 21:02:22 10° W 21:05:17 15° NW 21:08:12 10° NNW visible
04 Mar 8.8 02:14:50 10° NNE 02:16:27 11° NE 02:18:03 10° ENE visible
04 Mar 7.4 03:54:20 10° N 03:59:00 31° ENE 04:03:39 10° SE visible
04 Mar 5.5 05:35:01 10° N 05:40:16 75° W 05:45:29 10° S visible
04 Mar 6.2 18:44:11 10° SSW 18:49:22 62° WNW 18:54:35 10° N visible
04 Mar 8.3 20:27:27 10° W 20:31:13 20° NW 20:34:59 10° N visible
05 Mar 7.9 03:20:56 10° N 03:25:05 23° ENE 03:29:14 10° ESE visible
05 Mar 5.7 05:01:27 10° N 05:06:43 77° E 05:11:57 10° SSE visible
05 Mar 7.9 19:52:52 10° WSW 19:57:14 26° WNW 20:01:37 10° N visible
06 Mar 8.3 02:47:36 10° N 02:51:05 17° NE 02:54:32 10° E visible
06 Mar 6.3 04:27:54 10° N 04:33:03 54° ENE 04:38:11 10° SSE visible
06 Mar 5.9 06:08:51 10° NNW 06:13:45 41° W 06:18:38 10° SSW visible
06 Mar 7.3 19:18:34 10° SW 19:23:21 36° WNW 19:28:11 10° N visible
06 Mar 8.7 21:03:33 10° WNW 21:05:47 13° NW 21:08:00 10° NNW visible
07 Mar 8.6 02:14:28 10° NNE 02:16:57 13° NE 02:19:27 10° ENE visible
07 Mar 7.0 03:54:24 10° N 03:59:19 38° ENE 04:04:11 10° SE visible
07 Mar 5.6 05:35:11 10° N 05:40:21 60° W 05:45:29 10° SSW visible
07 Mar 6.7 18:44:30 10° SSW 18:49:35 50° WNW 18:54:42 10° N visible
07 Mar 8.5 20:28:22 10° W 20:31:38 16° NW 20:34:56 10° N visible
08 Mar 8.8 01:42:14 10° NNE 01:42:45 10° NE 01:43:16 10° NE visible
08 Mar 7.6 03:20:58 10° N 03:25:27 28° ENE 03:29:55 10° ESE visible
08 Mar 5.5 05:01:35 10° N 05:06:51 86° W 05:12:06 10° S visible
08 Mar 8.2 19:53:35 10° WSW 19:57:37 22° NW 20:01:39 10° N visible
09 Mar 8.0 02:47:35 10° N 02:51:29 21° NE 02:55:24 10° ESE visible
09 Mar 5.9 04:28:01 10° N 04:33:16 67° ENE 04:38:28 10° SSE visible
09 Mar 6.2 06:09:05 10° NNW 06:13:45 33° W 06:18:23 10° SW visible
09 Mar 7.7 19:19:06 10° WSW 19:23:40 29° WNW 19:28:15 10° N visible
09 Mar 8.8 21:05:08 10° NW 21:06:18 11° NW 21:07:28 10° NNW visible
